Weather History for Novato, CA

Change the Weather History Date:

Saturday, July 20, 2013

  Actual Average (KAPC) Record (KAPC)
Temperature  
Mean Temperature 66 °F 65 °F  
Max Temperature 84 °F 78 °F 89 °F (2011)
Min Temperature 48 °F 53 °F 48 °F (2007)
Degree Days  
Heating Degree Days 0    
Month to date heating degree days  
Since 1 June heating degree days  
Since 1 July heating degree days  
Cooling Degree Days 1    
Month to date cooling degree days  
Year to date cooling degree days  
Since 1 June cooling degree days  
Growing Degree Days 16 (Base 50)    
Moisture  
Dew Point 54 °F    
Average Humidity 78    
Maximum Humidity 100    
Minimum Humidity 40    
Precipitation  
Precipitation 0.00 in - 0.01 in (2005)
Month to date precipitation  
Year to date precipitation  
Since 1 July precipitation  
Sea Level Pressure  
Sea Level Pressure 29.81 in    
Wind  
Wind Speed 3 mph (ENE)    
Max Wind Speed 15 mph    
Max Gust Speed 16 mph    
Visibility 8 miles    
Events      
T = Trace of Precipitation, MM = Missing Value Source: NWS Daily Summary

Daily Weather History Graph

Daily Weather History Graph

Search for Another Location

Airport:

Trip Planner

Search our weather history database for the weather conditions in past years. The results will help you decide how hot, cold, wet, or windy it might be!

Date:

Astronomy

Jul. 20, 2013 Rise Set
Actual Time 6:03 AM PDT 8:29 PM PDT
Civil Twilight 5:33 AM PDT 8:59 PM PDT
Nautical Twilight 4:55 AM PDT 9:36 PM PDT
Astronomical Twilight 4:14 AM PDT 10:18 PM PDT
Moon 6:38 PM PDT (7/20) 3:48 AM PDT (7/20)
Length of Visible Light 15h 26m
Length of Day
14h 26m
Waxing Gibbous, 94% of the Moon is Illuminated
Jul 20
Waxing Gibbous
Jul 22
Full
Jul 29
Last Quarter
Aug 6
New
Aug 14
First Quarter

Hourly Weather History & Observations

Time (PDT) Temp. Heat Index Dew Point Humidity Pressure Visibility Wind Dir Wind Speed Gust Speed Precip Events Conditions
12:15 AM 50.0 °F - 50.0 °F 100% 29.86 in 7.0 mi NNW 3.5 mph - N/A   Clear
12:35 AM 51.8 °F - 51.8 °F 100% 29.86 in 8.0 mi Calm Calm - N/A   Clear
12:55 AM 53.6 °F - 51.8 °F 94% 29.86 in 8.0 mi Calm Calm - N/A   Clear
1:15 AM 53.6 °F - 53.6 °F 100% 29.86 in 8.0 mi Calm Calm - N/A   Clear
1:35 AM 50.0 °F - 48.2 °F 94% 29.86 in 8.0 mi Calm Calm - N/A   Clear
1:55 AM 50.0 °F - 50.0 °F 100% 29.86 in 7.0 mi Calm Calm - N/A   Clear
2:15 AM 50.0 °F - 50.0 °F 100% 29.85 in 7.0 mi Calm Calm - N/A   Clear
2:35 AM 51.8 °F - 51.8 °F 100% 29.85 in 8.0 mi Calm Calm - N/A   Clear
2:55 AM 51.8 °F - 51.8 °F 100% 29.85 in 9.0 mi Calm Calm - N/A   Clear
3:15 AM 48.2 °F - 48.2 °F 100% 29.85 in 7.0 mi Calm Calm - N/A   Clear
3:35 AM 50.0 °F - 50.0 °F 100% 29.84 in 8.0 mi Calm Calm - N/A   Clear
3:55 AM 51.8 °F - 51.8 °F 100% 29.85 in 8.0 mi Calm Calm - N/A   Clear
4:15 AM 48.2 °F - 48.2 °F 100% 29.85 in 7.0 mi Calm Calm - N/A   Clear
4:35 AM 50.0 °F - 50.0 °F 100% 29.84 in 8.0 mi Calm Calm - N/A   Clear
4:55 AM 50.0 °F - 50.0 °F 100% 29.84 in 7.0 mi Calm Calm - N/A   Clear
5:15 AM 50.0 °F - 50.0 °F 100% 29.84 in 8.0 mi Calm Calm - N/A   Mostly Cloudy
5:35 AM 50.0 °F - 50.0 °F 100% 29.84 in 8.0 mi Calm Calm - N/A   Overcast
5:55 AM 51.8 °F - 51.8 °F 100% 29.85 in 7.0 mi Calm Calm - N/A   Overcast
6:15 AM 53.6 °F - 53.6 °F 100% 29.84 in 6.0 mi Calm Calm - N/A   Overcast
6:35 AM 53.6 °F - 53.6 °F 100% 29.85 in 6.0 mi Calm Calm - N/A   Overcast
6:55 AM 53.6 °F - 53.6 °F 100% 29.85 in 5.0 mi Calm Calm - N/A   Overcast
7:15 AM 53.6 °F - 53.6 °F 100% 29.86 in 6.0 mi WSW 3.5 mph - N/A   Overcast
7:35 AM 53.6 °F - 53.6 °F 100% 29.86 in 5.0 mi Calm Calm - N/A   Overcast
7:55 AM 53.6 °F - 53.6 °F 100% 29.86 in 5.0 mi Calm Calm - N/A   Overcast
8:15 AM 55.4 °F - 55.4 °F 100% 29.86 in 6.0 mi Calm Calm - N/A   Overcast
8:35 AM 55.4 °F - 55.4 °F 100% 29.86 in 5.0 mi Calm Calm - N/A   Overcast
8:55 AM 55.4 °F - 55.4 °F 100% 29.87 in 6.0 mi NNW 3.5 mph - N/A   Overcast
9:15 AM 57.2 °F - 55.4 °F 94% 29.86 in 8.0 mi North 3.5 mph - N/A   Overcast
9:35 AM 57.2 °F - 55.4 °F 94% 29.86 in 8.0 mi NE 3.5 mph - N/A   Overcast
9:55 AM 59.0 °F - 55.4 °F 88% 29.86 in 10.0 mi ENE 3.5 mph - N/A   Mostly Cloudy
10:15 AM 62.6 °F - 55.4 °F 77% 29.85 in 10.0 mi SSE 3.5 mph - N/A   Partly Cloudy
10:35 AM 64.4 °F - 55.4 °F 73% 29.85 in 10.0 mi Calm Calm - N/A   Clear
10:55 AM 64.4 °F - 55.4 °F 73% 29.84 in 10.0 mi NNW 3.5 mph - N/A   Clear
11:15 AM 66.2 °F - 55.4 °F 68% 29.84 in 10.0 mi ESE 4.6 mph - N/A   Clear
11:35 AM 68.0 °F - 57.2 °F 68% 29.84 in 10.0 mi SE 5.8 mph - N/A   Clear
11:55 AM 69.8 °F - 57.2 °F 64% 29.83 in 10.0 mi SE 5.8 mph - N/A   Clear
12:15 PM 71.6 °F - 57.2 °F 60% 29.83 in 10.0 mi SE 3.5 mph - N/A   Clear
12:35 PM 73.4 °F - 57.2 °F 57% 29.82 in 10.0 mi SE 5.8 mph - N/A   Clear
12:55 PM 73.4 °F - 57.2 °F 57% 29.81 in - ESE 6.9 mph - N/A   Clear
1:15 PM 73.4 °F - 57.2 °F 57% 29.80 in - SE 5.8 mph - N/A   Clear
1:35 PM 75.2 °F - 57.2 °F 53% 29.79 in - Calm Calm - N/A   Clear
1:55 PM 77.0 °F - 57.2 °F 50% 29.78 in - SSE 4.6 mph - N/A   Clear
2:15 PM 80.6 °F 80.8 °F 57.2 °F 45% 29.78 in - SE 6.9 mph - N/A   Clear
2:35 PM 78.8 °F - 57.2 °F 47% 29.78 in - SE 6.9 mph - N/A   Clear
2:55 PM 82.4 °F 82.0 °F 57.2 °F 42% 29.77 in - SE 6.9 mph - N/A   Clear
3:15 PM 80.6 °F 80.8 °F 57.2 °F 45% 29.77 in - ESE 5.8 mph - N/A   Clear
3:35 PM 82.4 °F 82.0 °F 57.2 °F 42% 29.76 in - East 6.9 mph - N/A   Clear
3:55 PM 82.4 °F 82.0 °F 57.2 °F 42% 29.76 in - ESE 5.8 mph - N/A   Clear
4:15 PM 82.4 °F 82.0 °F 57.2 °F 42% 29.75 in - NE 8.1 mph - N/A   Clear
4:35 PM 84.2 °F 83.5 °F 57.2 °F 40% 29.74 in - NE 11.5 mph - N/A   Clear
4:55 PM 82.4 °F 82.5 °F 59.0 °F 45% 29.74 in - ENE 6.9 mph - N/A   Clear
5:15 PM 82.4 °F 82.0 °F 57.2 °F 42% 29.73 in - SE 3.5 mph - N/A   Clear
5:35 PM 82.4 °F 82.0 °F 57.2 °F 42% 29.73 in - SE 3.5 mph - N/A   Clear
5:55 PM 80.6 °F 80.8 °F 57.2 °F 45% 29.73 in - East 6.9 mph - N/A   Clear
6:15 PM 80.6 °F 80.8 °F 57.2 °F 45% 29.73 in - ESE 10.4 mph - N/A   Clear
6:35 PM 77.0 °F - 57.2 °F 50% 29.73 in - ENE 10.4 mph - N/A   Clear
6:55 PM 75.2 °F - 55.4 °F 50% 29.73 in - East 11.5 mph 16.1 mph N/A   Clear
7:15 PM 73.4 °F - 55.4 °F 53% 29.74 in - East 15.0 mph - N/A   Clear
7:35 PM 69.8 °F - 55.4 °F 60% 29.74 in 10.0 mi NE 12.7 mph - N/A   Clear
7:55 PM 68.0 °F - 53.6 °F 60% 29.75 in 10.0 mi NE 10.4 mph - N/A   Clear
8:15 PM 66.2 °F - 53.6 °F 64% 29.75 in 10.0 mi NE 10.4 mph - N/A   Clear
8:35 PM 64.4 °F - 53.6 °F 68% 29.76 in 10.0 mi NE 10.4 mph - N/A   Clear
8:55 PM 62.6 °F - 53.6 °F 72% 29.77 in 10.0 mi NNE 9.2 mph - N/A   Clear
9:15 PM 59.0 °F - 53.6 °F 82% 29.78 in 10.0 mi NNE 10.4 mph - N/A   Clear
9:35 PM 57.2 °F - 53.6 °F 88% 29.78 in 10.0 mi North 9.2 mph - N/A   Clear
9:55 PM 57.2 °F - 53.6 °F 88% 29.79 in 10.0 mi NNE 6.9 mph - N/A   Clear
10:15 PM 55.4 °F - 53.6 °F 94% 29.79 in 10.0 mi North 9.2 mph - N/A   Clear
10:35 PM 55.4 °F - 53.6 °F 94% 29.80 in 9.0 mi North 8.1 mph - N/A   Clear
10:55 PM 55.4 °F - 53.6 °F 94% 29.80 in 10.0 mi North 5.8 mph - N/A   Clear
11:15 PM 55.4 °F - 53.6 °F 94% 29.80 in 10.0 mi North 6.9 mph - N/A   Clear
11:35 PM 53.6 °F - 53.6 °F 100% 29.81 in 10.0 mi North 6.9 mph - N/A   Clear
11:55 PM 53.6 °F - 53.6 °F 100% 29.81 in 10.0 mi North 6.9 mph - N/A   Clear